owner,sensor,date,latitude,longitude,vertical_datum,sea_water_temperature,qcFlag
Anadarko,ioos:station:wmo:42398:1,2020-11-01T00:05:00Z,26.1322,-92.0403,100.6,20.1,11111222
Anadarko,ioos:station:wmo:42398:1,2020-11-01T00:25:00Z,26.1322,-92.0403,100.6,20.2,11111222
Anadarko,ioos:station:wmo:42398:1,2020-11-01T00:45:00Z,26.1322,-92.0403,100.6,20.3,11111222
Anadarko,ioos:station:wmo:42398:1,2020-11-01T01:05:00Z,26.1322,-92.0403,100.6,20.2,11111222
Anadarko,ioos:station:wmo:42398:1,2020-11-01T01:25:00Z,26.1322,-92.0403,100.6,20.2,11111222
Anadarko,ioos:station:wmo:42398:1,2020-11-01T01:44:00Z,26.1322,-92.0403,100.6,20.2,11111222
Anadarko,ioos:station:wmo:42398:1,2020-11-01T02:04:00Z,26.1322,-92.0403,100.6,20.1,11111222
Anadarko,ioos:station:wmo:42398:1,2020-11-01T02:24:00Z,26.1322,-92.0403,100.6,20.2,11111222
Anadarko,ioos:station:wmo:42398:1,2020-11-01T02:44:00Z,26.1322,-92.0403,100.6,20.2,11111222
Anadarko,ioos:station:wmo:42398:1,2020-11-01T03:04:00Z,26.1322,-92.0403,100.6,20.2,11111222
Anadarko,ioos:station:wmo:42398:1,2020-11-01T03:24:00Z,26.1322,-92.0403,100.6,20.2,11111222
Anadarko,ioos:station:wmo:42398:1,2020-11-01T03:44:00Z,26.1322,-92.0403,100.6,20.2,11111222
Anadarko,ioos:station:wmo:42398:1,2020-11-01T04:04:00Z,26.1322,-92.0403,100.6,20.2,11111222
Anadarko,ioos:station:wmo:42398:1,2020-11-01T04:24:00Z,26.1322,-92.0403,100.6,20.2,11111222
Anadarko,ioos:station:wmo:42398:1,2020-11-01T04:44:00Z,26.1322,-92.0403,100.6,20.3,11111222
Anadarko,ioos:station:wmo:42398:1,2020-11-01T05:04:00Z,26.1322,-92.0403,100.6,20.4,11111222
Anadarko,ioos:station:wmo:42398:1,2020-11-01T05:24:00Z,26.1322,-92.0403,100.6,20.4,11111222
Anadarko,ioos:station:wmo:42398:1,2020-11-01T05:44:00Z,26.1322,-92.0403,100.6,20.4,11111222
Anadarko,ioos:station:wmo:42398:1,2020-11-01T06:04:00Z,26.1322,-92.0403,100.6,20.3,11111222
Anadarko,ioos:station:wmo:42398:1,2020-11-01T06:23:00Z,26.1322,-92.0403,100.6,20.3,11111222
Anadarko,ioos:station:wmo:42398:1,2020-11-01T06:43:00Z,26.1322,-92.0403,100.6,20.3,11111222
Anadarko,ioos:station:wmo:42398:1,2020-11-01T07:03:00Z,26.1322,-92.0403,100.6,20.3,11111222
Anadarko,ioos:station:wmo:42398:1,2020-11-01T07:23:00Z,26.1322,-92.0403,100.6,20.3,11111222
Anadarko,ioos:station:wmo:42398:1,2020-11-01T07:43:00Z,26.1322,-92.0403,100.6,20.2,11111222
Anadarko,ioos:station:wmo:42398:1,2020-11-01T08:03:00Z,26.1322,-92.0403,100.6,20.2,11111222
Anadarko,ioos:station:wmo:42398:1,2020-11-01T08:23:00Z,26.1322,-92.0403,100.6,20.2,11111222
Anadarko,ioos:station:wmo:42398:1,2020-11-01T08:43:00Z,26.1322,-92.0403,100.6,20.3,11111222
Anadarko,ioos:station:wmo:42398:1,2020-11-01T09:03:00Z,26.1322,-92.0403,100.6,20.4,11111222
Anadarko,ioos:station:wmo:42398:1,2020-11-01T09:23:00Z,26.1322,-92.0403,100.6,20.5,11111222
Anadarko,ioos:station:wmo:42398:1,2020-11-01T09:43:00Z,26.1322,-92.0403,100.6,20.4,11111222
Anadarko,ioos:station:wmo:42398:1,2020-11-01T10:03:00Z,26.1322,-92.0403,100.6,20.3,11111222
Anadarko,ioos:station:wmo:42398:1,2020-11-01T10:23:00Z,26.1322,-92.0403,100.6,20.3,11111222
Anadarko,ioos:station:wmo:42398:1,2020-11-01T10:43:00Z,26.1322,-92.0403,100.6,20.4,11111222
Anadarko,ioos:station:wmo:42398:1,2020-11-01T11:03:00Z,26.1322,-92.0403,100.6,20.4,11111222
Anadarko,ioos:station:wmo:42398:1,2020-11-01T11:23:00Z,26.1322,-92.0403,100.6,20.4,11111222
Anadarko,ioos:station:wmo:42398:1,2020-11-01T11:43:00Z,26.1322,-92.0403,100.6,20.3,11111222
Anadarko,ioos:station:wmo:42398:1,2020-11-01T12:03:00Z,26.1322,-92.0403,100.6,20.4,11111222
Anadarko,ioos:station:wmo:42398:1,2020-11-01T12:23:00Z,26.1322,-92.0403,100.6,20.4,11111222
Anadarko,ioos:station:wmo:42398:1,2020-11-01T12:43:00Z,26.1322,-92.0403,100.6,20.4,11111222
Anadarko,ioos:station:wmo:42398:1,2020-11-01T13:02:00Z,26.1322,-92.0403,100.6,20.4,11111222
Anadarko,ioos:station:wmo:42398:1,2020-11-01T13:22:00Z,26.1322,-92.0403,100.6,20.4,11111222
Anadarko,ioos:station:wmo:42398:1,2020-11-01T13:42:00Z,26.1322,-92.0403,100.6,20.4,11111222
Anadarko,ioos:station:wmo:42398:1,2020-11-01T14:02:00Z,26.1322,-92.0403,100.6,20.3,11111222
Anadarko,ioos:station:wmo:42398:1,2020-11-01T14:22:00Z,26.1322,-92.0403,100.6,20.2,11111222
Anadarko,ioos:station:wmo:42398:1,2020-11-01T14:42:00Z,26.1322,-92.0403,100.6,20.2,11111222
Anadarko,ioos:station:wmo:42398:1,2020-11-01T15:02:00Z,26.1322,-92.0403,100.6,20.2,11111222
Anadarko,ioos:station:wmo:42398:1,2020-11-01T15:22:00Z,26.1322,-92.0403,100.6,20.1,11111222
Anadarko,ioos:station:wmo:42398:1,2020-11-01T15:42:00Z,26.1322,-92.0403,100.6,20.1,11111222
Anadarko,ioos:station:wmo:42398:1,2020-11-01T16:02:00Z,26.1322,-92.0403,100.6,20.1,11111222
Anadarko,ioos:station:wmo:42398:1,2020-11-01T16:22:00Z,26.1322,-92.0403,100.6,20.2,11111222
Anadarko,ioos:station:wmo:42398:1,2020-11-01T16:42:00Z,26.1322,-92.0403,100.6,20.1,11111222
Anadarko,ioos:station:wmo:42398:1,2020-11-01T17:02:00Z,26.1322,-92.0403,100.6,20.0,11111222
Anadarko,ioos:station:wmo:42398:1,2020-11-01T17:22:00Z,26.1322,-92.0403,100.6,20.0,11111222
Anadarko,ioos:station:wmo:42398:1,2020-11-01T17:42:00Z,26.1322,-92.0403,100.6,19.9,11111222
Anadarko,ioos:station:wmo:42398:1,2020-11-01T18:01:00Z,26.1322,-92.0403,100.6,19.8,11111222
Anadarko,ioos:station:wmo:42398:1,2020-11-01T18:20:00Z,26.1322,-92.0403,100.6,19.7,11111222
Anadarko,ioos:station:wmo:42398:1,2020-11-01T18:40:00Z,26.1322,-92.0403,100.6,19.9,11111222
Anadarko,ioos:station:wmo:42398:1,2020-11-01T19:00:00Z,26.1322,-92.0403,100.6,19.7,11111222
Anadarko,ioos:station:wmo:42398:1,2020-11-01T19:20:00Z,26.1322,-92.0403,100.6,19.7,11111222
Anadarko,ioos:station:wmo:42398:1,2020-11-01T19:39:00Z,26.1322,-92.0403,100.6,19.7,11111222
Anadarko,ioos:station:wmo:42398:1,2020-11-01T19:59:00Z,26.1322,-92.0403,100.6,19.6,11111222
Anadarko,ioos:station:wmo:42398:1,2020-11-01T20:19:00Z,26.1322,-92.0403,100.6,19.6,11111222
Anadarko,ioos:station:wmo:42398:1,2020-11-01T20:39:00Z,26.1322,-92.0403,100.6,19.6,11111222
Anadarko,ioos:station:wmo:42398:1,2020-11-01T20:59:00Z,26.1322,-92.0403,100.6,19.8,11111222
Anadarko,ioos:station:wmo:42398:1,2020-11-01T21:18:00Z,26.1322,-92.0403,100.6,19.9,11111222
Anadarko,ioos:station:wmo:42398:1,2020-11-01T21:38:00Z,26.1322,-92.0403,100.6,19.9,11111222
Anadarko,ioos:station:wmo:42398:1,2020-11-01T21:57:00Z,26.1322,-92.0403,100.6,19.9,11111222
Anadarko,ioos:station:wmo:42398:1,2020-11-01T22:17:00Z,26.1322,-92.0403,100.6,19.9,11111222
Anadarko,ioos:station:wmo:42398:1,2020-11-01T22:36:00Z,26.1322,-92.0403,100.6,19.7,11111222
Anadarko,ioos:station:wmo:42398:1,2020-11-01T22:56:00Z,26.1322,-92.0403,100.6,19.7,11111222
Anadarko,ioos:station:wmo:42398:1,2020-11-01T23:16:00Z,26.1322,-92.0403,100.6,19.7,11111222
Anadarko,ioos:station:wmo:42398:1,2020-11-01T23:36:00Z,26.1322,-92.0403,100.6,19.6,11111222
Anadarko,ioos:station:wmo:42398:1,2020-11-01T23:56:00Z,26.1322,-92.0403,100.6,19.7,11111222
Anadarko,ioos:station:wmo:42398:1,2020-11-02T00:15:00Z,26.1322,-92.0403,100.6,19.7,11111222
Anadarko,ioos:station:wmo:42398:1,2020-11-02T00:35:00Z,26.1322,-92.0403,100.6,19.6,11111222
Anadarko,ioos:station:wmo:42398:1,2020-11-02T00:54:00Z,26.1322,-92.0403,100.6,19.7,11111222
Anadarko,ioos:station:wmo:42398:1,2020-11-02T01:14:00Z,26.1322,-92.0403,100.6,19.8,11111222
Anadarko,ioos:station:wmo:42398:1,2020-11-02T01:34:00Z,26.1322,-92.0403,100.6,19.9,11111222
Anadarko,ioos:station:wmo:42398:1,2020-11-02T01:54:00Z,26.1322,-92.0403,100.6,20.0,11111222
Anadarko,ioos:station:wmo:42398:1,2020-11-02T02:14:00Z,26.1322,-92.0403,100.6,20.2,11111222
Anadarko,ioos:station:wmo:42398:1,2020-11-02T02:34:00Z,26.1322,-92.0403,100.6,20.5,11111222
Anadarko,ioos:station:wmo:42398:1,2020-11-02T02:54:00Z,26.1322,-92.0403,100.6,20.6,11111222
Anadarko,ioos:station:wmo:42398:1,2020-11-02T03:14:00Z,26.1322,-92.0403,100.6,20.6,11111222
Anadarko,ioos:station:wmo:42398:1,2020-11-02T03:34:00Z,26.1322,-92.0403,100.6,20.7,11111222
Anadarko,ioos:station:wmo:42398:1,2020-11-02T03:54:00Z,26.1322,-92.0403,100.6,20.7,11111222
Anadarko,ioos:station:wmo:42398:1,2020-11-02T04:14:00Z,26.1322,-92.0403,100.6,20.5,11111222
Anadarko,ioos:station:wmo:42398:1,2020-11-02T04:34:00Z,26.1322,-92.0403,100.6,20.5,11111222
Anadarko,ioos:station:wmo:42398:1,2020-11-02T04:54:00Z,26.1322,-92.0403,100.6,20.5,11111222
Anadarko,ioos:station:wmo:42398:1,2020-11-02T05:14:00Z,26.1322,-92.0403,100.6,20.5,11111222
Anadarko,ioos:station:wmo:42398:1,2020-11-02T05:34:00Z,26.1322,-92.0403,100.6,20.7,11111222
Anadarko,ioos:station:wmo:42398:1,2020-11-02T05:54:00Z,26.1322,-92.0403,100.6,20.7,11111222
Anadarko,ioos:station:wmo:42398:1,2020-11-02T06:14:00Z,26.1322,-92.0403,100.6,20.7,11111222
Anadarko,ioos:station:wmo:42398:1,2020-11-02T06:34:00Z,26.1322,-92.0403,100.6,20.7,11111222
Anadarko,ioos:station:wmo:42398:1,2020-11-02T06:54:00Z,26.1322,-92.0403,100.6,20.8,11111222
Anadarko,ioos:station:wmo:42398:1,2020-11-02T07:14:00Z,26.1322,-92.0403,100.6,20.8,11111222
Anadarko,ioos:station:wmo:42398:1,2020-11-02T07:34:00Z,26.1322,-92.0403,100.6,20.6,11111222
Anadarko,ioos:station:wmo:42398:1,2020-11-02T07:54:00Z,26.1322,-92.0403,100.6,20.6,11111222
Anadarko,ioos:station:wmo:42398:1,2020-11-02T08:14:00Z,26.1322,-92.0403,100.6,20.6,11111222
Anadarko,ioos:station:wmo:42398:1,2020-11-02T08:34:00Z,26.1322,-92.0403,100.6,20.5,11111222
Anadarko,ioos:station:wmo:42398:1,2020-11-02T08:53:00Z,26.1322,-92.0403,100.6,20.6,11111222
Anadarko,ioos:station:wmo:42398:1,2020-11-02T09:13:00Z,26.1322,-92.0403,100.6,20.6,11111222
Anadarko,ioos:station:wmo:42398:1,2020-11-02T09:33:00Z,26.1322,-92.0403,100.6,20.4,11111222
Anadarko,ioos:station:wmo:42398:1,2020-11-02T09:53:00Z,26.1322,-92.0403,100.6,20.4,11111222
Anadarko,ioos:station:wmo:42398:1,2020-11-02T10:13:00Z,26.1322,-92.0403,100.6,20.3,11111222
Anadarko,ioos:station:wmo:42398:1,2020-11-02T10:33:00Z,26.1322,-92.0403,100.6,20.3,11111222
Anadarko,ioos:station:wmo:42398:1,2020-11-02T10:52:00Z,26.1322,-92.0403,100.6,20.4,11111222
Anadarko,ioos:station:wmo:42398:1,2020-11-02T11:12:00Z,26.1322,-92.0403,100.6,20.3,11111222
Anadarko,ioos:station:wmo:42398:1,2020-11-02T11:32:00Z,26.1322,-92.0403,100.6,20.3,11111222
Anadarko,ioos:station:wmo:42398:1,2020-11-02T11:52:00Z,26.1322,-92.0403,100.6,20.4,11111222
Anadarko,ioos:station:wmo:42398:1,2020-11-02T12:12:00Z,26.1322,-92.0403,100.6,20.4,11111222
Anadarko,ioos:station:wmo:42398:1,2020-11-02T12:31:00Z,26.1322,-92.0403,100.6,20.4,11111222
Anadarko,ioos:station:wmo:42398:1,2020-11-02T12:51:00Z,26.1322,-92.0403,100.6,20.4,11111222
Anadarko,ioos:station:wmo:42398:1,2020-11-02T13:11:00Z,26.1322,-92.0403,100.6,20.3,11111222
Anadarko,ioos:station:wmo:42398:1,2020-11-02T13:31:00Z,26.1322,-92.0403,100.6,20.3,11111222
Anadarko,ioos:station:wmo:42398:1,2020-11-02T13:51:00Z,26.1322,-92.0403,100.6,20.3,11111222
Anadarko,ioos:station:wmo:42398:1,2020-11-02T14:10:00Z,26.1322,-92.0403,100.6,20.3,11111222
Anadarko,ioos:station:wmo:42398:1,2020-11-02T14:30:00Z,26.1322,-92.0403,100.6,20.3,11111222
Anadarko,ioos:station:wmo:42398:1,2020-11-02T14:50:00Z,26.1322,-92.0403,100.6,20.3,11111222
Anadarko,ioos:station:wmo:42398:1,2020-11-02T15:09:00Z,26.1322,-92.0403,100.6,20.3,11111222
Anadarko,ioos:station:wmo:42398:1,2020-11-02T15:29:00Z,26.1322,-92.0403,100.6,20.3,11111222
Anadarko,ioos:station:wmo:42398:1,2020-11-02T15:49:00Z,26.1322,-92.0403,100.6,20.4,11111222
Anadarko,ioos:station:wmo:42398:1,2020-11-02T16:09:00Z,26.1322,-92.0403,100.6,20.6,11111222
Anadarko,ioos:station:wmo:42398:1,2020-11-02T16:29:00Z,26.1322,-92.0403,100.6,20.7,11111222
Anadarko,ioos:station:wmo:42398:1,2020-11-02T16:49:00Z,26.1322,-92.0403,100.6,20.6,11111222
Anadarko,ioos:station:wmo:42398:1,2020-11-02T17:09:00Z,26.1322,-92.0403,100.6,20.6,11111222
Anadarko,ioos:station:wmo:42398:1,2020-11-02T17:29:00Z,26.1322,-92.0403,100.6,20.5,11111222
Anadarko,ioos:station:wmo:42398:1,2020-11-02T17:49:00Z,26.1322,-92.0403,100.6,20.5,11111222
Anadarko,ioos:station:wmo:42398:1,2020-11-02T18:09:00Z,26.1322,-92.0403,100.6,20.5,11111222
Anadarko,ioos:station:wmo:42398:1,2020-11-02T18:28:00Z,26.1322,-92.0403,100.6,20.5,11111222
Anadarko,ioos:station:wmo:42398:1,2020-11-02T18:47:00Z,26.1322,-92.0403,100.6,20.5,11111222
Anadarko,ioos:station:wmo:42398:1,2020-11-02T19:07:00Z,26.1322,-92.0403,100.6,20.4,11111222
Anadarko,ioos:station:wmo:42398:1,2020-11-02T19:27:00Z,26.1322,-92.0403,100.6,20.4,11111222
Anadarko,ioos:station:wmo:42398:1,2020-11-02T19:47:00Z,26.1322,-92.0403,100.6,20.3,11111222
Anadarko,ioos:station:wmo:42398:1,2020-11-02T20:07:00Z,26.1322,-92.0403,100.6,20.4,11111222
Anadarko,ioos:station:wmo:42398:1,2020-11-02T20:27:00Z,26.1322,-92.0403,100.6,20.1,11111222
Anadarko,ioos:station:wmo:42398:1,2020-11-02T20:47:00Z,26.1322,-92.0403,100.6,20.1,11111222
Anadarko,ioos:station:wmo:42398:1,2020-11-02T21:07:00Z,26.1322,-92.0403,100.6,20.1,11111222
Anadarko,ioos:station:wmo:42398:1,2020-11-02T21:27:00Z,26.1322,-92.0403,100.6,20.1,11111222
Anadarko,ioos:station:wmo:42398:1,2020-11-02T21:47:00Z,26.1322,-92.0403,100.6,19.9,11111222
Anadarko,ioos:station:wmo:42398:1,2020-11-02T22:07:00Z,26.1322,-92.0403,100.6,19.9,11111222
Anadarko,ioos:station:wmo:42398:1,2020-11-02T22:27:00Z,26.1322,-92.0403,100.6,19.9,11111222
Anadarko,ioos:station:wmo:42398:1,2020-11-02T22:47:00Z,26.1322,-92.0403,100.6,19.9,11111222
Anadarko,ioos:station:wmo:42398:1,2020-11-02T23:07:00Z,26.1322,-92.0403,100.6,19.9,11111222
Anadarko,ioos:station:wmo:42398:1,2020-11-02T23:27:00Z,26.1322,-92.0403,100.6,19.8,11111222
Anadarko,ioos:station:wmo:42398:1,2020-11-02T23:46:00Z,26.1322,-92.0403,100.6,19.8,11111222
Anadarko,ioos:station:wmo:42398:1,2020-11-03T00:06:00Z,26.1322,-92.0403,100.6,19.8,11111222
Anadarko,ioos:station:wmo:42398:1,2020-11-03T00:26:00Z,26.1322,-92.0403,100.6,19.8,11111222
Anadarko,ioos:station:wmo:42398:1,2020-11-03T00:46:00Z,26.1322,-92.0403,100.6,19.9,11111222
Anadarko,ioos:station:wmo:42398:1,2020-11-03T01:06:00Z,26.1322,-92.0403,100.6,19.9,11111222
Anadarko,ioos:station:wmo:42398:1,2020-11-03T01:26:00Z,26.1322,-92.0403,100.6,19.9,11111222
Anadarko,ioos:station:wmo:42398:1,2020-11-03T01:46:00Z,26.1322,-92.0403,100.6,19.9,11111222
Anadarko,ioos:station:wmo:42398:1,2020-11-03T02:06:00Z,26.1322,-92.0403,100.6,19.9,11111222
Anadarko,ioos:station:wmo:42398:1,2020-11-03T02:26:00Z,26.1322,-92.0403,100.6,19.9,11111222
Anadarko,ioos:station:wmo:42398:1,2020-11-03T02:46:00Z,26.1322,-92.0403,100.6,19.9,11111222
Anadarko,ioos:station:wmo:42398:1,2020-11-03T03:05:00Z,26.1322,-92.0403,100.6,20.0,11111222
Anadarko,ioos:station:wmo:42398:1,2020-11-03T03:24:00Z,26.1322,-92.0403,100.6,20.1,11111222
Anadarko,ioos:station:wmo:42398:1,2020-11-03T03:44:00Z,26.1322,-92.0403,100.6,20.2,11111222
Anadarko,ioos:station:wmo:42398:1,2020-11-03T04:04:00Z,26.1322,-92.0403,100.6,20.2,11111222
Anadarko,ioos:station:wmo:42398:1,2020-11-03T04:24:00Z,26.1322,-92.0403,100.6,20.4,11111222
Anadarko,ioos:station:wmo:42398:1,2020-11-03T04:44:00Z,26.1322,-92.0403,100.6,20.4,11111222
Anadarko,ioos:station:wmo:42398:1,2020-11-03T05:04:00Z,26.1322,-92.0403,100.6,20.5,11111222
Anadarko,ioos:station:wmo:42398:1,2020-11-03T05:23:00Z,26.1322,-92.0403,100.6,20.5,11111222
Anadarko,ioos:station:wmo:42398:1,2020-11-03T05:42:00Z,26.1322,-92.0403,100.6,20.6,11111222
Anadarko,ioos:station:wmo:42398:1,2020-11-03T06:02:00Z,26.1322,-92.0403,100.6,20.6,11111222
Anadarko,ioos:station:wmo:42398:1,2020-11-03T06:22:00Z,26.1322,-92.0403,100.6,20.5,11111222
Anadarko,ioos:station:wmo:42398:1,2020-11-03T06:42:00Z,26.1322,-92.0403,100.6,20.5,11111222
Anadarko,ioos:station:wmo:42398:1,2020-11-03T07:02:00Z,26.1322,-92.0403,100.6,20.5,11111222
Anadarko,ioos:station:wmo:42398:1,2020-11-03T07:22:00Z,26.1322,-92.0403,100.6,20.4,11111222
Anadarko,ioos:station:wmo:42398:1,2020-11-03T07:42:00Z,26.1322,-92.0403,100.6,20.5,11111222
Anadarko,ioos:station:wmo:42398:1,2020-11-03T08:02:00Z,26.1322,-92.0403,100.6,20.5,11111222
Anadarko,ioos:station:wmo:42398:1,2020-11-03T08:22:00Z,26.1322,-92.0403,100.6,20.6,11111222
Anadarko,ioos:station:wmo:42398:1,2020-11-03T08:42:00Z,26.1322,-92.0403,100.6,20.6,11111222
Anadarko,ioos:station:wmo:42398:1,2020-11-03T09:02:00Z,26.1322,-92.0403,100.6,20.6,11111222
Anadarko,ioos:station:wmo:42398:1,2020-11-03T09:22:00Z,26.1322,-92.0403,100.6,20.6,11111222
Anadarko,ioos:station:wmo:42398:1,2020-11-03T09:42:00Z,26.1322,-92.0403,100.6,20.6,11111222
Anadarko,ioos:station:wmo:42398:1,2020-11-03T10:02:00Z,26.1322,-92.0403,100.6,20.6,11111222
Anadarko,ioos:station:wmo:42398:1,2020-11-03T10:22:00Z,26.1322,-92.0403,100.6,20.5,11111222
Anadarko,ioos:station:wmo:42398:1,2020-11-03T10:42:00Z,26.1322,-92.0403,100.6,20.6,11111222
Anadarko,ioos:station:wmo:42398:1,2020-11-03T11:02:00Z,26.1322,-92.0403,100.6,20.5,11111222
Anadarko,ioos:station:wmo:42398:1,2020-11-03T11:22:00Z,26.1322,-92.0403,100.6,20.6,11111222
Anadarko,ioos:station:wmo:42398:1,2020-11-03T11:42:00Z,26.1322,-92.0403,100.6,20.3,11111222
Anadarko,ioos:station:wmo:42398:1,2020-11-03T12:01:00Z,26.1322,-92.0403,100.6,20.4,11111222
Anadarko,ioos:station:wmo:42398:1,2020-11-03T12:21:00Z,26.1322,-92.0403,100.6,20.4,11111222
Anadarko,ioos:station:wmo:42398:1,2020-11-03T12:41:00Z,26.1322,-92.0403,100.6,20.3,11111222
Anadarko,ioos:station:wmo:42398:1,2020-11-03T13:01:00Z,26.1322,-92.0403,100.6,20.4,11111222
Anadarko,ioos:station:wmo:42398:1,2020-11-03T13:21:00Z,26.1322,-92.0403,100.6,20.4,11111222
Anadarko,ioos:station:wmo:42398:1,2020-11-03T13:41:00Z,26.1322,-92.0403,100.6,20.4,11111222
Anadarko,ioos:station:wmo:42398:1,2020-11-03T14:01:00Z,26.1322,-92.0403,100.6,20.5,11111222
Anadarko,ioos:station:wmo:42398:1,2020-11-03T14:21:00Z,26.1322,-92.0403,100.6,20.6,11111222
Anadarko,ioos:station:wmo:42398:1,2020-11-03T14:41:00Z,26.1322,-92.0403,100.6,20.6,11111222
Anadarko,ioos:station:wmo:42398:1,2020-11-03T15:01:00Z,26.1322,-92.0403,100.6,20.6,11111222
Anadarko,ioos:station:wmo:42398:1,2020-11-03T15:21:00Z,26.1322,-92.0403,100.6,20.5,11111222
Anadarko,ioos:station:wmo:42398:1,2020-11-03T15:41:00Z,26.1322,-92.0403,100.6,20.5,11111222
Anadarko,ioos:station:wmo:42398:1,2020-11-03T16:01:00Z,26.1322,-92.0403,100.6,20.5,11111222
Anadarko,ioos:station:wmo:42398:1,2020-11-03T16:21:00Z,26.1322,-92.0403,100.6,20.5,11111222
Anadarko,ioos:station:wmo:42398:1,2020-11-03T16:41:00Z,26.1322,-92.0403,100.6,20.5,11111222
Anadarko,ioos:station:wmo:42398:1,2020-11-03T17:01:00Z,26.1322,-92.0403,100.6,20.5,11111222
Anadarko,ioos:station:wmo:42398:1,2020-11-03T17:21:00Z,26.1322,-92.0403,100.6,20.5,11111222
Anadarko,ioos:station:wmo:42398:1,2020-11-03T17:41:00Z,26.1322,-92.0403,100.6,20.6,11111222
Anadarko,ioos:station:wmo:42398:1,2020-11-03T18:01:00Z,26.1322,-92.0403,100.6,20.6,11111222
Anadarko,ioos:station:wmo:42398:1,2020-11-03T18:20:00Z,26.1322,-92.0403,100.6,20.6,11111222
Anadarko,ioos:station:wmo:42398:1,2020-11-03T18:40:00Z,26.1322,-92.0403,100.6,20.7,11111222
Anadarko,ioos:station:wmo:42398:1,2020-11-03T19:00:00Z,26.1322,-92.0403,100.6,20.6,11111222
Anadarko,ioos:station:wmo:42398:1,2020-11-03T19:20:00Z,26.1322,-92.0403,100.6,20.6,11111222
Anadarko,ioos:station:wmo:42398:1,2020-11-03T19:40:00Z,26.1322,-92.0403,100.6,20.5,11111222
Anadarko,ioos:station:wmo:42398:1,2020-11-03T20:00:00Z,26.1322,-92.0403,100.6,20.4,11111222
Anadarko,ioos:station:wmo:42398:1,2020-11-03T20:20:00Z,26.1322,-92.0403,100.6,20.4,11111222
Anadarko,ioos:station:wmo:42398:1,2020-11-03T20:40:00Z,26.1322,-92.0403,100.6,20.4,11111222
Anadarko,ioos:station:wmo:42398:1,2020-11-03T21:00:00Z,26.1322,-92.0403,100.6,20.3,11111222
Anadarko,ioos:station:wmo:42398:1,2020-11-03T21:20:00Z,26.1322,-92.0403,100.6,20.4,11111222
Anadarko,ioos:station:wmo:42398:1,2020-11-03T21:40:00Z,26.1322,-92.0403,100.6,20.3,11111222
Anadarko,ioos:station:wmo:42398:1,2020-11-03T22:00:00Z,26.1322,-92.0403,100.6,20.2,11111222
Anadarko,ioos:station:wmo:42398:1,2020-11-03T22:20:00Z,26.1322,-92.0403,100.6,20.2,11111222
Anadarko,ioos:station:wmo:42398:1,2020-11-03T22:40:00Z,26.1322,-92.0403,100.6,20.1,11111222
Anadarko,ioos:station:wmo:42398:1,2020-11-03T23:00:00Z,26.1322,-92.0403,100.6,20.2,11111222
Anadarko,ioos:station:wmo:42398:1,2020-11-03T23:20:00Z,26.1322,-92.0403,100.6,20.1,11111222
Anadarko,ioos:station:wmo:42398:1,2020-11-03T23:40:00Z,26.1322,-92.0403,100.6,20.1,11111222
Anadarko,ioos:station:wmo:42398:1,2020-11-04T00:00:00Z,26.1322,-92.0403,100.6,20.0,11111222
Anadarko,ioos:station:wmo:42398:1,2020-11-04T00:20:00Z,26.1322,-92.0403,100.6,20.0,11111222
Anadarko,ioos:station:wmo:42398:1,2020-11-04T00:40:00Z,26.1322,-92.0403,100.6,20.0,11111222
Anadarko,ioos:station:wmo:42398:1,2020-11-04T01:00:00Z,26.1322,-92.0403,100.6,20.1,11111222
Anadarko,ioos:station:wmo:42398:1,2020-11-04T01:20:00Z,26.1322,-92.0403,100.6,20.1,11111222
Anadarko,ioos:station:wmo:42398:1,2020-11-04T01:40:00Z,26.1322,-92.0403,100.6,20.1,11111222
Anadarko,ioos:station:wmo:42398:1,2020-11-04T02:00:00Z,26.1322,-92.0403,100.6,20.1,11111222
Anadarko,ioos:station:wmo:42398:1,2020-11-04T02:19:00Z,26.1322,-92.0403,100.6,20.1,11111222
Anadarko,ioos:station:wmo:42398:1,2020-11-04T02:38:00Z,26.1322,-92.0403,100.6,20.0,11111222
Anadarko,ioos:station:wmo:42398:1,2020-11-04T02:57:00Z,26.1322,-92.0403,100.6,20.0,11111222
Anadarko,ioos:station:wmo:42398:1,2020-11-04T03:17:00Z,26.1322,-92.0403,100.6,20.1,11111222
Anadarko,ioos:station:wmo:42398:1,2020-11-04T03:37:00Z,26.1322,-92.0403,100.6,20.1,11111222
Anadarko,ioos:station:wmo:42398:1,2020-11-04T03:57:00Z,26.1322,-92.0403,100.6,20.2,11111222
Anadarko,ioos:station:wmo:42398:1,2020-11-04T04:17:00Z,26.1322,-92.0403,100.6,20.1,11111222
Anadarko,ioos:station:wmo:42398:1,2020-11-04T04:37:00Z,26.1322,-92.0403,100.6,20.2,11111222
Anadarko,ioos:station:wmo:42398:1,2020-11-04T04:57:00Z,26.1322,-92.0403,100.6,20.1,11111222
Anadarko,ioos:station:wmo:42398:1,2020-11-04T05:17:00Z,26.1322,-92.0403,100.6,20.3,11111222
Anadarko,ioos:station:wmo:42398:1,2020-11-04T05:37:00Z,26.1322,-92.0403,100.6,20.2,11111222
Anadarko,ioos:station:wmo:42398:1,2020-11-04T05:57:00Z,26.1322,-92.0403,100.6,20.3,11111222
Anadarko,ioos:station:wmo:42398:1,2020-11-04T06:17:00Z,26.1322,-92.0403,100.6,20.2,11111222
Anadarko,ioos:station:wmo:42398:1,2020-11-04T06:37:00Z,26.1322,-92.0403,100.6,20.2,11111222
Anadarko,ioos:station:wmo:42398:1,2020-11-04T06:57:00Z,26.1322,-92.0403,100.6,20.3,11111222
Anadarko,ioos:station:wmo:42398:1,2020-11-04T07:17:00Z,26.1322,-92.0403,100.6,20.3,11111222
Anadarko,ioos:station:wmo:42398:1,2020-11-04T07:36:00Z,26.1322,-92.0403,100.6,20.3,11111222
Anadarko,ioos:station:wmo:42398:1,2020-11-04T07:56:00Z,26.1322,-92.0403,100.6,20.3,11111222
Anadarko,ioos:station:wmo:42398:1,2020-11-04T08:15:00Z,26.1322,-92.0403,100.6,20.3,11111222
Anadarko,ioos:station:wmo:42398:1,2020-11-04T08:35:00Z,26.1322,-92.0403,100.6,20.4,11111222
Anadarko,ioos:station:wmo:42398:1,2020-11-04T08:55:00Z,26.1322,-92.0403,100.6,20.5,11111222
Anadarko,ioos:station:wmo:42398:1,2020-11-04T09:15:00Z,26.1322,-92.0403,100.6,20.5,11111222
Anadarko,ioos:station:wmo:42398:1,2020-11-04T09:35:00Z,26.1322,-92.0403,100.6,20.4,11111222
Anadarko,ioos:station:wmo:42398:1,2020-11-04T09:55:00Z,26.1322,-92.0403,100.6,20.4,11111222
Anadarko,ioos:station:wmo:42398:1,2020-11-04T10:15:00Z,26.1322,-92.0403,100.6,20.4,11111222
Anadarko,ioos:station:wmo:42398:1,2020-11-04T10:35:00Z,26.1322,-92.0403,100.6,20.3,11111222
Anadarko,ioos:station:wmo:42398:1,2020-11-04T10:55:00Z,26.1322,-92.0403,100.6,20.3,11111222
Anadarko,ioos:station:wmo:42398:1,2020-11-04T11:15:00Z,26.1322,-92.0403,100.6,20.3,11111222
Anadarko,ioos:station:wmo:42398:1,2020-11-04T11:35:00Z,26.1322,-92.0403,100.6,20.3,11111222
Anadarko,ioos:station:wmo:42398:1,2020-11-04T11:55:00Z,26.1322,-92.0403,100.6,20.1,11111222
Anadarko,ioos:station:wmo:42398:1,2020-11-04T12:14:00Z,26.1322,-92.0403,100.6,20.0,11111222
Anadarko,ioos:station:wmo:42398:1,2020-11-04T12:34:00Z,26.1322,-92.0403,100.6,20.1,11111222
Anadarko,ioos:station:wmo:42398:1,2020-11-04T12:54:00Z,26.1322,-92.0403,100.6,20.1,11111222